Regional Weather Roundup
Issued by NWS

Home | Current Version | Previous Version | Graphics & Text | Print | Product List | Glossary On
Versions: 1 2 3 4 5 6 7 8 9 10 11 12 13 14 15 16 17 18 19 20 21 22 23 24 25 26 27 28 29 30 31 32 33 34 35 36 37 38 39 40 41 42 43 44 45 46 47 48 49 50
118
ASUS43 KBIS 281702
RWRND

NORTH DAKOTA REGIONAL WEATHER ROUNDUP
NATIONAL WEATHER SERVICE BISMARCK ND
1200 PM CDT SUN AUG 28 2016

NOTE: "FAIR" INDICATES FEW OR NO CLOUDS BELOW 12,000 FEET WITH NO
SIGNIFICANT WEATHER AND/OR OBSTRUCTIONS TO VISIBILITY.


NDZ001>003-009>011-017-281800-
NORTHWEST NORTH DAKOTA

CITY           SKY/WX    TMP DP  RH WIND       PRES   REMARKS
WILLISTON      MOSUNNY   78  52  40 SW7       29.88R
MINOT          SUNNY     84  60  44 SE10      29.87S
MINOT AFB      SUNNY     84  60  44 S13       29.86S
$$

NDZ018>021-031>035-040>046-281800-
SOUTHWEST NORTH DAKOTA

CITY           SKY/WX    TMP DP  RH WIND       PRES   REMARKS
BISMARCK       SUNNY     77  63  61 VRB5      29.91S
DICKINSON      SUNNY     85  47  26 VRB3      29.90S
GARRISON         N/A     78  63  59 SE6       29.90R
HETTINGER ARPT SUNNY     89  46  22 CALM      29.94S
$$

NDZ004>008-012>016-024-026-027-054-281800-
NORTHEAST NORTH DAKOTA

CITY           SKY/WX    TMP DP  RH WIND       PRES   REMARKS
GRAND FORKS    MOSUNNY   75  63  66 S16       29.98S
GRND FRKS AFB  SUNNY     75  64  67 S15       29.98S
DEVILS LAKE    SUNNY     76  67  73 SE16      29.95S
$$

NDZ022-023-025-028>030-036>039-047>053-281800-
SOUTHEAST NORTH DAKOTA

CITY           SKY/WX    TMP DP  RH WIND       PRES   REMARKS
FARGO          PTSUNNY   77  63  61 SE15      29.99F
JAMESTOWN      MOSUNNY   76  69  79 SE13G21   29.93F
$$





USA.gov is the U.S. government's official web portal to all federal, state and local government web resources and services.